154  
ASUS42 KMHX 190122  
RWRMHX  
WEATHER ROUNDUP FOR EASTERN NORTH CAROLINA  
NATIONAL WEATHER SERVICE NEWPORT/MOREHEAD CITY NC  
900 PM EDT FRI APR 18 2014  
 
NOTE: "FAIR" INDICATES FEW OR NO CLOUDS BELOW 12,000 FEET  
WITH NO SIGNIFICANT WEATHER AND/OR S TO VISIBILITY
 
 
NCZ015>017-031-032-045>047-102-103-190200-  
NORTH COAST  
 
CITY SKY/WX TMP DP RH WIND PRES REMARKS
 
EDENTON CLOUDY 48 42 80 NE8 30.29F  
ELIZABETH CITY CLOUDY 48 42 80 NE9 30.31S  
KITTY HAWK CLOUDY 46 44 92 NE5 30.30R  
MANTEO CLOUDY 46 44 91 NE12G17 30.31R  
 

 
 
NCZ045>047-081-094-103-104-190200-  
CENTRAL COAST  
 
CITY SKY/WX TMP DP RH WIND PRES REMARKS
 
FRISCO CLOUDY 51 50 96 NE13G21 30.27R  
SWANQUARTER N/A 50 N/A N/A N9G20 30.24S  
 

 
 
NCZ095-097-098-100-101-190200-  
SOUTHERN COAST  
 
CITY SKY/WX TMP DP RH WIND PRES REMARKS
 
BEAUFORT CLOUDY 56 48 74 NE15G25 30.22F  
CEDAR ISLAND N/A 54 N/A N/A N21G26 30.30R  
JACKSONVILLE LGT RAIN 54 53 97 NE7 30.23R  
NEWPORT N/A 55 48 76 N8 N/A  
PINEY ISLAND CLOUDY 56 49 77 N15 30.25R  
WILMINGTON RAIN 56 53 90 NE13 30.23R FOG  
 

 
 
NCZ011>013-027>030-043-044-078>080-089-090>093-098-190200-  
COASTAL PLAIN  
 
CITY SKY/WX TMP DP RH WIND PRES REMARKS
 
AHOSKIE CLOUDY 51 42 70 N6 30.30R  
CLINTON LGT RAIN 58 53 85 CALM 30.24R  
ELIZABETHTOWN RAIN 55 54 95 CALM 30.22S  
GOLDSBORO LGT RAIN 59 48 67 N5 30.22S  
GREENVILLE CLOUDY 54 45 71 E6 30.27R  
HAVELOCK CLOUDY 56 42 59 NE15 30.24S  
KENANSVILLE LGT RAIN 58 48 71 E3 30.24R  
KINSTON CLOUDY 59 46 63 NE10 30.25R  
NEW BERN LGT RAIN 57 47 69 NE13 30.26S  
RICHLANDS CLOUDY 54 48 82 N7 30.26R  
ROANOKE RAPIDS NOT AVBL  
ROCKY MOUNT CLOUDY 56 44 64 N10 30.25F  
WASHINGTON CLOUDY 53 47 79 NE7 30.27R  
WHITEVILLE RAIN 55 53 94 NE6 30.21S  
 

 
 
AMZ130-135-150-152-154-156-158-170-250-252-270-ANZ085-086-088-633-658-670-190200-  
MARINE OBSERVATIONS  
 
STATION/POSITION TIME TEMP WIND PRES WAVE SWELL
 
AIR SEA DIR/SP/G HT/PER HT/PER  
(UTC) (F) (DEG/KT/KT) (MB) (FT/S) (FT/S)  
CHESAPEAKE LIGHT 0100 45 50/ 15/ 16 1026.7  
BUOY 44014 0100 47 49 10/ 17/ 21 1025.3 7/ 9 5/ 9  
DUCK 0100 46 52 30/ 12/ 13 1025.5  
2E DUCK 0100 49 N/A 6/11 2/11  
OREGON INLET 0100 47 52 360/ 11/ 18 1025.9  
BUOY 44095 0100 48 N/A 7/11 3/11  
HATTERAS CG 0100 51 56 10/ 11/ 20 1024.7  
DIAMOND BUOY NOT AVBL  
CAPE LOOKOUT 0100 55 20/ 19/ 23 1022.9  
BEAUFORT LAB 0100 55 59 30/ 12/ 18 1022.4  
30 SE NEW RIVER 0100 57 65 40/ 25/ 29 1021.6 8/ 7 3/10  
5 SE WRIGHTSVILL 0100 55 59 40/ 16/ 21 1023.0  
FRYING PAN BUOY 0100 60 65 50/ 23/ 27 1020.1 9/ 7 3/ 9  
BUOY 41001 NOT AVBL  
BUOY 41002 NOT AVBL  
BUOY 41004 NOT AVBL  
 

 
 
CLICK HERE TO GO TO PREVIOUS BULLETINS.

The Nexlab NC Page Main Text Page